This is the latest recevied weather packets stored in our database for station/object NorthRyde. If no packets are shown the sender has not sent any weather packets the latest 10 day(s).
| Time | Temp. | Humidity | Pressure | Rain* | Wind** | Luminosity | Snow |
|---|---|---|---|---|---|---|---|
| 1777358841 | 21.67° C | 65% | 1025.8 hPa | 0 mm | - | 35 W/m² | - |
| 1777358769 | 21.67° C | 64% | 1025.8 hPa | 0 mm | - | 37 W/m² | - |
| 1777358711 | 21.67° C | 64% | 1025.9 hPa | 0 mm | - | 39 W/m² | - |
| 1777358649 | 21.67° C | 64% | 1026 hPa | 0 mm | - | 39 W/m² | - |
| 1777358590 | 21.67° C | 64% | 1026 hPa | 0 mm | - | 40 W/m² | - |
| 1777358536 | 21.67° C | 64% | 1025.9 hPa | 0 mm | - | 42 W/m² | - |
| 1777358469 | 21.67° C | 64% | 1026 hPa | 0 mm | - | 46 W/m² | - |
| 1777358423 | 21.67° C | 64% | 1025.9 hPa | 0 mm | - | 49 W/m² | - |
| 1777358401 | 21.67° C | 63% | 1025.9 hPa | 0 mm | - | 51 W/m² | - |
| 1777358383 | 21.67° C | 63% | 1025.9 hPa | 0 mm | - | 53 W/m² | - |
| 1777358361 | 21.67° C | 63% | 1026 hPa | 0 mm | - | 53 W/m² | - |
| 1777358170 | 21.67° C | 63% | 1026 hPa | 0 mm | - | 62 W/m² | - |
| 1777358110 | 21.67° C | 63% | 1025.9 hPa | 0 mm | - | 63 W/m² | - |
| 1777358051 | 22.22° C | 63% | 1026 hPa | 0 mm | - | 67 W/m² | - |
| 1777357989 | 22.22° C | 63% | 1025.9 hPa | 0 mm | - | 70 W/m² | - |
| 1777357937 | 22.22° C | 63% | 1026 hPa | 0 mm | - | 72 W/m² | - |
| 1777357869 | 22.22° C | 63% | 1026 hPa | 0 mm | - | 69 W/m² | - |
| 1777357809 | 22.22° C | 63% | 1026 hPa | 0 mm | - | 69 W/m² | - |
| 1777357748 | 22.22° C | 62% | 1026 hPa | 0 mm | - | 69 W/m² | - |
| 1777357691 | 22.22° C | 62% | 1026 hPa | 0 mm | - | 69 W/m² | - |
| 1777357635 | 22.22° C | 62% | 1025.8 hPa | 0 mm | - | 70 W/m² | - |
| 1777357571 | 22.22° C | 62% | 1025.9 hPa | 0 mm | - | 70 W/m² | - |
| 1777357524 | 22.22° C | 62% | 1025.8 hPa | 0 mm | - | 74 W/m² | - |
| 1777357503 | 22.22° C | 62% | 1025.9 hPa | 0 mm | - | 83 W/m² | - |
| 1777357483 | 22.22° C | 62% | 1025.8 hPa | 0 mm | - | 90 W/m² | - |
* Rain latest hour (hover to see other rain measurements)
** Current wind speed in m/s (hover to see current wind gust speed)